"Sample Date","Sample Time","Sample Value","Units","Flow Rate","Sample Interval","Number Channels","Micron Size 0","Counts/Channel 0","Micron Size 1","Counts/Channel 1","Micron Size 2","Counts/Channel 2","Micron Size 3","Counts/Channel 3","Micron Size 4","Counts/Channel 4","Micron Size 5","Counts/Channel 5","Micron Size 6","Counts/Channel 6","Micron Size 7","Counts/Channel 7","Micron Size 8","Counts/Channel 8","Micron Size 9","Counts/Channel 9","Micron Size 10","Counts/Channel 10","Micron Size 11","Counts/Channel 11","Micron Size 12","Counts/Channel 12","Micron Size 13","Counts/Channel 13","Micron Size 14","Counts/Channel 14","Micron Size 15","Counts/Channel 15","Micron Size 16","Counts/Channel 16","Micron Size 17","Counts/Channel 17","Micron Size 18","Counts/Channel 18","Micron Size 19","Counts/Channel 19","Micron Size 20","Counts/Channel 20","Micron Size 21","Counts/Channel 21","Micron Size 22","Counts/Channel 22","Micron Size 23","Counts/Channel 23","Micron Size 24","Counts/Channel 24","Micron Size 25","Counts/Channel 25","Micron Size 26","Counts/Channel 26","Micron Size 27","Counts/Channel 27","Micron Size 28","Counts/Channel 28","Micron Size 29","Counts/Channel 29","Micron Size 30","Counts/Channel 30","Micron Size 31","Counts/Channel 31"
"03/12/08","22:00:02",26150.000,"cc",28319.119,6.00,6,0.100,22744.000,0.200,1441.000,0.300,702.000,0.500,942.000,1.000,321.000,5.000,0
"03/12/08","22:00:08",26734.000,"cc",28293.631,6.00,6,0.100,23307.000,0.200,1405.000,0.300,766.000,0.500,904.000,1.000,352.000,5.000,0
"03/12/08","22:00:14",26467.000,"cc",28266.596,6.00,6,0.100,23157.000,0.200,1344.000,0.300,693.000,0.500,934.000,1.000,339.000,5.000,0
"03/12/08","22:00:20",26692.000,"cc",28380.731,6.00,6,0.100,23314.000,0.200,1444.000,0.300,705.000,0.500,920.000,1.000,309.000,5.000,0
"03/12/08","22:00:26",26801.000,"cc",28322.533,6.00,6,0.100,23356.000,0.200,1446.000,0.300,725.000,0.500,930.000,1.000,344.000,5.000,0
"03/12/08","22:00:32",26567.000,"cc",28310.914,6.00,6,0.100,23138.000,0.200,1427.000,0.300,733.000,0.500,908.000,1.000,361.000,5.000,0
"03/12/08","22:00:38",26408.000,"cc",28262.129,6.00,6,0.100,23033.000,0.200,1399.000,0.300,728.000,0.500,939.000,1.000,309.000,5.000,0
"03/12/08","22:00:44",26676.000,"cc",28333.418,6.00,6,0.100,23217.000,0.200,1419.000,0.300,780.000,0.500,930.000,1.000,330.000,5.000,0
"03/12/08","22:00:50",26537.000,"cc",28326.051,6.00,6,0.100,23070.000,0.200,1471.000,0.300,720.000,0.500,919.000,1.000,357.000,5.000,0
"03/12/08","22:00:56",26419.000,"cc",28341.752,6.00,6,0.100,23106.000,0.200,1437.000,0.300,691.000,0.500,864.000,1.000,321.000,5.000,0
"03/12/08","22:01:02",26565.000,"cc",28347.500,6.00,6,0.100,23128.000,0.200,1424.000,0.300,675.000,0.500,996.000,1.000,342.000,5.000,0
"03/12/08","22:01:08",26116.000,"cc",28287.045,6.00,6,0.100,22763.000,0.200,1395.000,0.300,714.000,0.500,910.000,1.000,334.000,5.000,0
"03/12/08","22:01:14",26667.000,"cc",28312.484,6.00,6,0.100,23211.000,0.200,1418.000,0.300,718.000,0.500,948.000,1.000,372.000,5.000,0
"03/12/08","22:01:20",26311.000,"cc",28296.504,6.00,6,0.100,22919.000,0.200,1413.000,0.300,725.000,0.500,928.000,1.000,326.000,5.000,0
"03/12/08","22:01:26",26678.000,"cc",28389.715,6.00,6,0.100,23239.000,0.200,1420.000,0.300,706.000,0.500,948.000,1.000,365.000,5.000,0
"03/12/08","22:01:32",26585.000,"cc",28359.029,6.00,6,0.100,23133.000,0.200,1400.000,0.300,724.000,0.500,979.000,1.000,349.000,5.000,0
"03/12/08","22:01:38",26659.000,"cc",28296.553,6.00,6,0.100,23163.000,0.200,1456.000,0.300,709.000,0.500,954.000,1.000,377.000,5.000,0
"03/12/08","22:01:44",26485.000,"cc",28293.338,6.00,6,0.100,23006.000,0.200,1455.000,0.300,735.000,0.500,948.000,1.000,341.000,5.000,0
"03/12/08","22:01:50",26313.000,"cc",28273.367,6.00,6,0.100,22807.000,0.200,1390.000,0.300,740.000,0.500,1001.000,1.000,375.000,5.000,0
"03/12/08","22:01:56",26591.000,"cc",28306.900,6.00,6,0.100,23054.000,0.200,1489.000,0.300,744.000,0.500,950.000,1.000,354.000,5.000,0
"03/12/08","22:02:02",26401.000,"cc",28313.746,6.00,6,0.100,23016.000,0.200,1411.000,0.300,725.000,0.500,898.000,1.000,351.000,5.000,0
"03/12/08","22:02:08",26577.000,"cc",28270.350,6.00,6,0.100,23232.000,0.200,1383.000,0.300,704.000,0.500,907.000,1.000,351.000,5.000,0
"03/12/08","22:02:14",26522.000,"cc",28368.346,6.00,6,0.100,23210.000,0.200,1386.000,0.300,709.000,0.500,887.000,1.000,330.000,5.000,0
"03/12/08","22:02:20",26810.000,"cc",28343.795,6.00,6,0.100,23376.000,0.200,1454.000,0.300,720.000,0.500,920.000,1.000,340.000,5.000,0
"03/12/08","22:02:26",26777.000,"cc",28287.744,6.00,6,0.100,23263.000,0.200,1436.000,0.300,713.000,0.500,989.000,1.000,376.000,5.000,0
"03/12/08","22:02:32",26734.000,"cc",28304.707,6.00,6,0.100,23278.000,0.200,1416.000,0.300,716.000,0.500,960.000,1.000,364.000,5.000,0
"03/12/08","22:02:38",26469.000,"cc",28382.725,6.00,6,0.100,23005.000,0.200,1417.000,0.300,704.000,0.500,969.000,1.000,374.000,5.000,0
"03/12/08","22:02:44",26513.000,"cc",28366.934,6.00,6,0.100,23011.000,0.200,1430.000,0.300,727.000,0.500,986.000,1.000,359.000,5.000,0
"03/12/08","22:02:50",26597.000,"cc",28272.525,6.00,6,0.100,23149.000,0.200,1413.000,0.300,719.000,0.500,971.000,1.000,345.000,5.000,0
"03/12/08","22:02:56",26414.000,"cc",28379.783,6.00,6,0.100,23034.000,0.200,1332.000,0.300,767.000,0.500,926.000,1.000,355.000,5.000,0
"03/12/08","22:03:02",26478.000,"cc",28338.600,6.00,6,0.100,22816.000,0.200,1504.000,0.300,748.000,0.500,1017.000,1.000,393.000,5.000,0
"03/12/08","22:03:08",26682.000,"cc",28243.910,6.00,6,0.100,23096.000,0.200,1460.000,0.300,786.000,0.500,989.000,1.000,351.000,5.000,0
"03/12/08","22:03:14",26820.000,"cc",28270.094,6.00,6,0.100,23191.000,0.200,1536.000,0.300,759.000,0.500,966.000,1.000,368.000,5.000,0
"03/12/08","22:03:20",26929.000,"cc",28269.848,6.00,6,0.100,23399.000,0.200,1441.000,0.300,745.000,0.500,972.000,1.000,372.000,5.000,0
"03/12/08","22:03:26",26797.000,"cc",28312.783,6.00,6,0.100,23221.000,0.200,1489.000,0.300,751.000,0.500,989.000,1.000,347.000,5.000,0
"03/12/08","22:03:32",26770.000,"cc",28328.281,6.00,6,0.100,23011.000,0.200,1546.000,0.300,803.000,0.500,1053.000,1.000,357.000,5.000,0
"03/12/08","22:03:38",26589.000,"cc",28284.283,6.00,6,0.100,23118.000,0.200,1443.000,0.300,724.000,0.500,917.000,1.000,387.000,5.000,0
"03/12/08","22:03:44",26578.000,"cc",28352.426,6.00,6,0.100,23049.000,0.200,1396.000,0.300,753.000,0.500,999.000,1.000,381.000,5.000,0
"03/12/08","22:03:50",26533.000,"cc",28317.654,6.00,6,0.100,23062.000,0.200,1378.000,0.300,751.000,0.500,961.000,1.000,381.000,5.000,0
"03/12/08","22:03:56",26521.000,"cc",28356.168,6.00,6,0.100,23106.000,0.200,1370.000,0.300,740.000,0.500,929.000,1.000,376.000,5.000,0
"03/12/08","22:04:02",26690.000,"cc",28307.969,6.00,6,0.100,23089.000,0.200,1516.000,0.300,761.000,0.500,950.000,1.000,374.000,5.000,0
"03/12/08","22:04:08",26584.000,"cc",28310.123,6.00,6,0.100,22894.000,0.200,1540.000,0.300,782.000,0.500,1014.000,1.000,354.000,5.000,0
"03/12/08","22:04:14",26848.000,"cc",28233.998,6.00,6,0.100,23199.000,0.200,1486.000,0.300,755.000,0.500,1029.000,1.000,379.000,5.000,0
"03/12/08","22:04:20",26209.000,"cc",28275.395,6.00,6,0.100,22771.000,0.200,1425.000,0.300,727.000,0.500,961.000,1.000,325.000,5.000,0
"03/12/08","22:04:26",26812.000,"cc",28352.133,6.00,6,0.100,23239.000,0.200,1503.000,0.300,728.000,0.500,984.000,1.000,358.000,5.000,0
"03/12/08","22:04:32",26932.000,"cc",28290.918,6.00,6,0.100,23285.000,0.200,1514.000,0.300,767.000,0.500,965.000,1.000,401.000,5.000,0
"03/12/08","22:04:38",26586.000,"cc",28276.219,6.00,6,0.100,23015.000,0.200,1508.000,0.300,745.000,0.500,958.000,1.000,360.000,5.000,0
"03/12/08","22:04:44",26766.000,"cc",28315.115,6.00,6,0.100,23148.000,0.200,1430.000,0.300,766.000,0.500,1020.000,1.000,402.000,5.000,0
"03/12/08","22:04:50",26874.000,"cc",28325.945,6.00,6,0.100,23227.000,0.200,1558.000,0.300,718.000,0.500,1005.000,1.000,366.000,5.000,0
"03/12/08","22:04:56",27161.000,"cc",28340.602,6.00,6,0.100,23346.000,0.200,1598.000,0.300,833.000,0.500,1000.000,1.000,384.000,5.000,0
"03/12/08","22:05:02",26976.000,"cc",28296.475,6.00,6,0.100,23274.000,0.200,1510.000,0.300,792.000,0.500,1023.000,1.000,377.000,5.000,0
"03/12/08","22:05:08",27220.000,"cc",28356.836,6.00,6,0.100,23425.000,0.200,1521.000,0.300,793.000,0.500,1100.000,1.000,381.000,5.000,0
"03/12/08","22:05:14",26944.000,"cc",28337.555,6.00,6,0.100,23155.000,0.200,1550.000,0.300,803.000,0.500,1021.000,1.000,415.000,5.000,0
"03/12/08","22:05:20",26928.000,"cc",28339.940,6.00,6,0.100,23095.000,0.200,1614.000,0.300,780.000,0.500,1062.000,1.000,377.000,5.000,0
"03/12/08","22:05:26",27395.000,"cc",28363.867,6.00,6,0.100,23546.000,0.200,1547.000,0.300,813.000,0.500,1096.000,1.000,393.000,5.000,0
"03/12/08","22:05:32",27161.000,"cc",28283.592,6.00,6,0.100,23209.000,0.200,1656.000,0.300,854.000,0.500,1057.000,1.000,385.000,5.000,0
"03/12/08","22:05:38",26916.000,"cc",28247.152,6.00,6,0.100,23192.000,0.200,1528.000,0.300,821.000,0.500,1016.000,1.000,359.000,5.000,0
"03/12/08","22:05:44",27195.000,"cc",28296.680,6.00,6,0.100,23428.000,0.200,1516.000,0.300,858.000,0.500,1057.000,1.000,336.000,5.000,0
"03/12/08","22:05:50",27347.000,"cc",28346.578,6.00,6,0.100,23401.000,0.200,1661.000,0.300,838.000,0.500,1079.000,1.000,368.000,5.000,0
"03/12/08","22:05:56",27265.000,"cc",28318.815,6.00,6,0.100,23390.000,0.200,1617.000,0.300,819.000,0.500,1015.000,1.000,424.000,5.000,0
"03/12/08","22:06:02",47942.000,"cc",28298.973,6.00,6,0.100,42240.000,0.200,3106.000,0.300,990.000,0.500,1188.000,1.000,418.000,5.000,0
"03/12/08","22:06:08",34480.000,"cc",28338.139,6.00,6,0.100,29715.000,0.200,2150.000,0.300,1006.000,0.500,1204.000,1.000,405.000,5.000,0
"03/12/08","22:06:14",42357.000,"cc",28331.168,6.00,6,0.100,37195.000,0.200,2708.000,0.300,970.000,0.500,1122.000,1.000,362.000,5.000,0
"03/12/08","22:06:20",68600.000,"cc",28269.799,6.00,6,0.100,60451.000,0.200,4768.000,0.300,1383.000,0.500,1494.000,1.000,504.000,5.000,0
"03/12/08","22:06:26",153298.000,"cc",28376.225,6.00,6,0.100,137869.000,0.200,11329.000,0.300,1860.000,0.500,1644.000,1.000,596.000,5.000,0
"03/12/08","22:06:32",118766.000,"cc",28317.986,6.00,6,0.100,107096.000,0.200,8380.000,0.300,1429.000,0.500,1392.000,1.000,469.000,5.000,0
"03/12/08","22:06:38",109749.000,"cc",28323.565,6.00,6,0.100,99270.000,0.200,7454.000,0.300,1269.000,0.500,1269.000,1.000,487.000,5.000,0
"03/12/08","22:06:44",86010.000,"cc",28295.844,6.00,6,0.100,76764.000,0.200,5973.000,0.300,1391.000,0.500,1355.000,1.000,527.000,5.000,0
"03/12/08","22:06:50",99676.000,"cc",28307.584,6.00,6,0.100,87203.000,0.200,7622.000,0.300,2106.000,0.500,2004.000,1.000,741.000,5.000,0
"03/12/08","22:06:56",139999.000,"cc",28254.029,6.00,6,0.100,123968.000,0.200,10861.000,0.300,2279.000,0.500,2128.000,1.000,763.000,5.000,0
"03/12/08","22:07:02",159433.000,"cc",28344.668,6.00,6,0.100,143341.000,0.200,12165.000,0.300,1747.000,0.500,1563.000,1.000,617.000,5.000,0
"03/12/08","22:07:08",193983.000,"cc",28390.191,6.00,6,0.100,174742.000,0.200,15658.000,0.300,1724.000,0.500,1381.000,1.000,478.000,5.000,0
"03/12/08","22:07:14",228831.000,"cc",28288.924,6.00,6,0.100,205730.000,0.200,18892.000,0.300,2075.000,0.500,1565.000,1.000,569.000,5.000,0
"03/12/08","22:07:20",243357.000,"cc",28292.865,6.00,6,0.100,217546.000,0.200,20930.000,0.300,2387.000,0.500,1854.000,1.000,640.000,5.000,0
"03/12/08","22:07:26",180913.000,"cc",28245.531,6.00,6,0.100,161703.000,0.200,14743.000,0.300,2107.000,0.500,1758.000,1.000,602.000,5.000,0
"03/12/08","22:07:32",172426.000,"cc",28311.606,6.00,6,0.100,153294.000,0.200,14269.000,0.300,2310.000,0.500,1856.000,1.000,697.000,5.000,0
"03/12/08","22:07:38",219693.000,"cc",28328.662,6.00,6,0.100,195090.000,0.200,19546.000,0.300,2423.000,0.500,1907.000,1.000,727.000,5.000,0
"03/12/08","22:07:44",225667.000,"cc",28367.178,6.00,6,0.100,201326.000,0.200,19768.000,0.300,2233.000,0.500,1700.000,1.000,640.000,5.000,0
"03/12/08","22:07:50",149375.000,"cc",28347.988,6.00,6,0.100,133456.000,0.200,12374.000,0.300,1659.000,0.500,1377.000,1.000,509.000,5.000,0
"03/12/08","22:07:56",273257.000,"cc",28312.490,6.00,6,0.100,241332.000,0.200,26836.000,0.300,2715.000,0.500,1754.000,1.000,620.000,5.000,0
"03/12/08","22:08:02",273292.000,"cc",28261.820,6.00,6,0.100,240011.000,0.200,27410.000,0.300,3120.000,0.500,2046.000,1.000,705.000,5.000,0
"03/12/08","22:08:08",191381.000,"cc",28340.592,6.00,6,0.100,169543.000,0.200,17306.000,0.300,2247.000,0.500,1682.000,1.000,603.000,5.000,0
"03/12/08","22:08:14",278904.000,"cc",28365.918,6.00,6,0.100,245485.000,0.200,28066.000,0.300,2852.000,0.500,1829.000,1.000,672.000,5.000,0
"03/12/08","22:08:20",204465.000,"cc",28290.098,6.00,6,0.100,180385.000,0.200,19341.000,0.300,2339.000,0.500,1789.000,1.000,611.000,5.000,0
"03/12/08","22:08:26",265011.000,"cc",28316.600,6.00,6,0.100,233041.000,0.200,26724.000,0.300,2684.000,0.500,1868.000,1.000,694.000,5.000,0
"03/12/08","22:08:32",191904.000,"cc",28328.434,6.00,6,0.100,169787.000,0.200,18050.000,0.300,2055.000,0.500,1483.000,1.000,529.000,5.000,0
"03/12/08","22:08:38",239198.000,"cc",28330.219,6.00,6,0.100,185713.000,0.200,47433.000,0.300,3729.000,0.500,1717.000,1.000,606.000,5.000,0
"03/12/08","22:08:44",382898.000,"cc",28454.090,6.00,6,0.100,330134.000,0.200,46805.000,0.300,3658.000,0.500,1716.000,1.000,585.000,5.000,0
"03/12/08","22:08:50",297355.000,"cc",28294.639,6.00,6,0.100,260680.000,0.200,31750.000,0.300,2753.000,0.500,1624.000,1.000,548.000,5.000,0
"03/12/08","22:08:56",317367.000,"cc",28260.629,6.00,6,0.100,277388.000,0.200,34572.000,0.300,3055.000,0.500,1740.000,1.000,612.000,5.000,0
"03/12/08","22:09:02",290921.000,"cc",28281.645,6.00,6,0.100,253658.000,0.200,31734.000,0.300,3088.000,0.500,1788.000,1.000,653.000,5.000,0
"03/12/08","22:09:08",257203.000,"cc",28358.627,6.00,6,0.100,223759.000,0.200,27739.000,0.300,2926.000,0.500,2043.000,1.000,736.000,5.000,0
"03/12/08","22:09:14",217385.000,"cc",28319.272,6.00,6,0.100,188963.000,0.200,23541.000,0.300,2541.000,0.500,1746.000,1.000,594.000,5.000,0
"03/12/08","22:09:20",293355.000,"cc",28285.688,6.00,6,0.100,253245.000,0.200,35034.000,0.300,2892.000,0.500,1661.000,1.000,523.000,5.000,0
"03/12/08","22:09:26",263936.000,"cc",28298.275,6.00,6,0.100,231363.000,0.200,28314.000,0.300,2356.000,0.500,1442.000,1.000,461.000,5.000,0
"03/12/08","22:09:32",194163.000,"cc",28300.727,6.00,6,0.100,120142.000,0.200,66726.000,0.300,4871.000,0.500,1821.000,1.000,603.000,5.000,0
"03/12/08","22:09:38",318422.000,"cc",28303.018,6.00,6,0.100,275955.000,0.200,37203.000,0.300,3076.000,0.500,1642.000,1.000,546.000,5.000,0
"03/12/08","22:09:44",293878.000,"cc",28287.137,6.00,6,0.100,254833.000,0.200,33709.000,0.300,3034.000,0.500,1689.000,1.000,613.000,5.000,0
"03/12/08","22:09:50",272725.000,"cc",28342.611,6.00,6,0.100,224074.000,0.200,42662.000,0.300,3518.000,0.500,1842.000,1.000,629.000,5.000,0
"03/12/08","22:09:56",357564.000,"cc",28318.688,6.00,6,0.100,305059.000,0.200,45606.000,0.300,4139.000,0.500,2082.000,1.000,678.000,5.000,0
"03/12/08","22:10:02",315198.000,"cc",28307.916,6.00,6,0.100,271798.000,0.200,37733.000,0.300,3278.000,0.500,1803.000,1.000,586.000,5.000,0
"03/12/08","22:10:08",335214.000,"cc",28342.123,6.00,6,0.100,286253.000,0.200,42647.000,0.300,3725.000,0.500,1925.000,1.000,664.000,5.000,0
"03/12/08","22:10:14",310134.000,"cc",28358.695,6.00,6,0.100,267234.000,0.200,37292.000,0.300,3261.000,0.500,1727.000,1.000,620.000,5.000,0
"03/12/08","22:10:20",367606.000,"cc",28309.600,6.00,6,0.100,313462.000,0.200,47935.000,0.300,3825.000,0.500,1806.000,1.000,578.000,5.000,0
"03/12/08","22:10:26",315099.000,"cc",28313.523,6.00,6,0.100,255703.000,0.200,52442.000,0.300,4363.000,0.500,1982.000,1.000,609.000,5.000,0
"03/12/08","22:10:32",335746.000,"cc",28299.061,6.00,6,0.100,284762.000,0.200,44558.000,0.300,3895.000,0.500,1933.000,1.000,598.000,5.000,0
"03/12/08","22:10:38",281999.000,"cc",28309.178,6.00,6,0.100,242595.000,0.200,33790.000,0.300,3246.000,0.500,1787.000,1.000,581.000,5.000,0
"03/12/08","22:10:44",318769.000,"cc",28286.570,6.00,6,0.100,259786.000,0.200,52632.000,0.300,4065.000,0.500,1728.000,1.000,558.000,5.000,0
"03/12/08","22:10:50",361941.000,"cc",28299.664,6.00,6,0.100,306127.000,0.200,48966.000,0.300,4152.000,0.500,2021.000,1.000,675.000,5.000,0
"03/12/08","22:10:56",235901.000,"cc",28287.813,6.00,6,0.100,136875.000,0.200,88677.000,0.300,7200.000,0.500,2386.000,1.000,763.000,5.000,0
"03/12/08","22:11:02",257649.000,"cc",28337.690,6.00,6,0.100,221044.000,0.200,30982.000,0.300,3077.000,0.500,1894.000,1.000,652.000,5.000,0
"03/12/08","22:11:08",319870.000,"cc",28354.522,6.00,6,0.100,238189.000,0.200,73189.000,0.300,5811.000,0.500,1984.000,1.000,697.000,5.000,0
"03/12/08","22:11:14",362292.000,"cc",28292.303,6.00,6,0.100,288260.000,0.200,66859.000,0.300,4914.000,0.500,1712.000,1.000,547.000,5.000,0
"03/12/08","22:11:20",321296.000,"cc",28311.840,6.00,6,0.100,273906.000,0.200,41252.000,0.300,3695.000,0.500,1841.000,1.000,602.000,5.000,0
"03/12/08","22:11:26",340926.000,"cc",28343.672,6.00,6,0.100,274451.000,0.200,59636.000,0.300,4622.000,0.500,1657.000,1.000,560.000,5.000,0
"03/12/08","22:11:32",322194.000,"cc",28297.066,6.00,6,0.100,273071.000,0.200,42685.000,0.300,3892.000,0.500,1942.000,1.000,604.000,5.000,0
"03/12/08","22:11:38",314667.000,"cc",28289.703,6.00,6,0.100,269870.000,0.200,39111.000,0.300,3371.000,0.500,1742.000,1.000,573.000,5.000,0
"03/12/08","22:11:44",296092.000,"cc",28339.850,6.00,6,0.100,252564.000,0.200,37013.000,0.300,3772.000,0.500,2055.000,1.000,688.000,5.000,0
"03/12/08","22:11:50",310436.000,"cc",28269.941,6.00,6,0.100,265563.000,0.200,38753.000,0.300,3628.000,0.500,1860.000,1.000,632.000,5.000,0
"03/12/08","22:11:56",265863.000,"cc",28353.965,6.00,6,0.100,228116.000,0.200,31638.000,0.300,3430.000,0.500,2012.000,1.000,667.000,5.000,0
"03/12/08","22:12:02",323432.000,"cc",28279.254,6.00,6,0.100,275573.000,0.200,41331.000,0.300,3798.000,0.500,2059.000,1.000,671.000,5.000,0
"03/12/08","22:12:08",300928.000,"cc",28325.537,6.00,6,0.100,256719.000,0.200,37928.000,0.300,3553.000,0.500,2023.000,1.000,705.000,5.000,0
"03/12/08","22:12:14",266962.000,"cc",28293.633,6.00,6,0.100,228899.000,0.200,32073.000,0.300,3349.000,0.500,1966.000,1.000,675.000,5.000,0
"03/12/08","22:12:20",282995.000,"cc",28330.883,6.00,6,0.100,241361.000,0.200,35173.000,0.300,3657.000,0.500,2081.000,1.000,723.000,5.000,0
"03/12/08","22:12:26",208948.000,"cc",28332.406,6.00,6,0.100,179769.000,0.200,23683.000,0.300,2914.000,0.500,1915.000,1.000,667.000,5.000,0
"03/12/08","22:12:32",158333.000,"cc",28306.801,6.00,6,0.100,136811.000,0.200,16846.000,0.300,2329.000,0.500,1746.000,1.000,601.000,5.000,0
"03/12/08","22:12:38",212314.000,"cc",28294.684,6.00,6,0.100,182304.000,0.200,24227.000,0.300,2999.000,0.500,2037.000,1.000,747.000,5.000,0
"03/12/08","22:12:44",159281.000,"cc",28279.744,6.00,6,0.100,135867.000,0.200,18065.000,0.300,2604.000,0.500,2018.000,1.000,727.000,5.000,0
"03/12/08","22:12:50",106592.000,"cc",28351.793,6.00,6,0.100,90381.000,0.200,10943.000,0.300,2455.000,0.500,2091.000,1.000,722.000,5.000,0
"03/12/08","22:12:56",159231.000,"cc",28318.875,6.00,6,0.100,136818.000,0.200,17391.000,0.300,2437.000,0.500,1913.000,1.000,672.000,5.000,0
"03/12/08","22:13:02",181320.000,"cc",28336.148,6.00,6,0.100,156033.000,0.200,20403.000,0.300,2522.000,0.500,1754.000,1.000,608.000,5.000,0
"03/12/08","22:13:08",244408.000,"cc",28356.898,6.00,6,0.100,209479.000,0.200,29599.000,0.300,2979.000,0.500,1733.000,1.000,618.000,5.000,0
"03/12/08","22:13:14",222612.000,"cc",28279.285,6.00,6,0.100,192073.000,0.200,25756.000,0.300,2594.000,0.500,1635.000,1.000,554.000,5.000,0
"03/12/08","22:13:20",245179.000,"cc",28273.549,6.00,6,0.100,210308.000,0.200,29248.000,0.300,3155.000,0.500,1863.000,1.000,605.000,5.000,0
"03/12/08","22:13:26",214436.000,"cc",28337.305,6.00,6,0.100,182607.000,0.200,25597.000,0.300,3301.000,0.500,2200.000,1.000,731.000,5.000,0
"03/12/08","22:13:32",256260.000,"cc",28335.902,6.00,6,0.100,218173.000,0.200,31833.000,0.300,3557.000,0.500,2017.000,1.000,680.000,5.000,0
"03/12/08","22:13:38",214228.000,"cc",28288.574,6.00,6,0.100,183815.000,0.200,24887.000,0.300,2976.000,0.500,1938.000,1.000,612.000,5.000,0
"03/12/08","22:13:44",201210.000,"cc",28376.803,6.00,6,0.100,173055.000,0.200,23066.000,0.300,2698.000,0.500,1795.000,1.000,596.000,5.000,0
"03/12/08","22:13:50",173813.000,"cc",28339.336,6.00,6,0.100,149319.000,0.200,19496.000,0.300,2564.000,0.500,1801.000,1.000,633.000,5.000,0
"03/12/08","22:13:56",153006.000,"cc",28240.873,6.00,6,0.100,131655.000,0.200,16572.000,0.300,2344.000,0.500,1767.000,1.000,668.000,5.000,0
"03/12/08","22:14:02",173420.000,"cc",28288.522,6.00,6,0.100,148206.000,0.200,19439.000,0.300,2881.000,0.500,2186.000,1.000,708.000,5.000,0
"03/12/08","22:14:08",192080.000,"cc",28315.693,6.00,6,0.100,163420.000,0.200,21997.000,0.300,3348.000,0.500,2419.000,1.000,896.000,5.000,0
"03/12/08","22:14:14",160450.000,"cc",28365.248,6.00,6,0.100,136874.000,0.200,17738.000,0.300,2907.000,0.500,2179.000,1.000,752.000,5.000,0
"03/12/08","22:14:20",204536.000,"cc",28307.877,6.00,6,0.100,173409.000,0.200,24796.000,0.300,3332.000,0.500,2225.000,1.000,774.000,5.000,0
"03/12/08","22:14:26",242863.000,"cc",28328.650,6.00,6,0.100,207470.000,0.200,29860.000,0.300,3126.000,0.500,1807.000,1.000,600.000,5.000,0
"03/12/08","22:14:32",131641.000,"cc",28302.311,6.00,6,0.100,112699.000,0.200,14301.000,0.300,2244.000,0.500,1772.000,1.000,625.000,5.000,0
"03/12/08","22:14:38",169206.000,"cc",28320.180,6.00,6,0.100,145689.000,0.200,18828.000,0.300,2402.000,0.500,1697.000,1.000,590.000,5.000,0
"03/12/08","22:14:44",150619.000,"cc",28373.080,6.00,6,0.100,128694.000,0.200,16588.000,0.300,2695.000,0.500,1969.000,1.000,673.000,5.000,0
"03/12/08","22:14:50",111333.000,"cc",28286.627,6.00,6,0.100,94994.000,0.200,11681.000,0.300,2249.000,0.500,1794.000,1.000,615.000,5.000,0
"03/12/08","22:14:56",169990.000,"cc",28273.074,6.00,6,0.100,145814.000,0.200,18957.000,0.300,2610.000,0.500,1914.000,1.000,695.000,5.000,0
"03/12/08","22:15:02",110287.000,"cc",28308.607,6.00,6,0.100,93301.000,0.200,11665.000,0.300,2488.000,0.500,2093.000,1.000,740.000,5.000,0
"03/12/08","22:15:08",92814.000,"cc",28338.982,6.00,6,0.100,78249.000,0.200,9828.000,0.300,2145.000,0.500,1943.000,1.000,649.000,5.000,0
"03/12/08","22:15:14",133564.000,"cc",28333.914,6.00,6,0.100,113706.000,0.200,14531.000,0.300,2691.000,0.500,1954.000,1.000,682.000,5.000,0
"03/12/08","22:15:20",155867.000,"cc",28350.801,6.00,6,0.100,132452.000,0.200,17487.000,0.300,2917.000,0.500,2266.000,1.000,745.000,5.000,0
"03/12/08","22:15:26",157958.000,"cc",28290.004,6.00,6,0.100,133978.000,0.200,17806.000,0.300,3057.000,0.500,2315.000,1.000,802.000,5.000,0
"03/12/08","22:15:32",147326.000,"cc",28283.545,6.00,6,0.100,124089.000,0.200,16827.000,0.300,3089.000,0.500,2470.000,1.000,851.000,5.000,0
"03/12/08","22:15:38",188956.000,"cc",28354.877,6.00,6,0.100,159330.000,0.200,22313.000,0.300,3671.000,0.500,2685.000,1.000,957.000,5.000,0
"03/12/08","22:15:44",151222.000,"cc",28270.576,6.00,6,0.100,128308.000,0.200,16726.000,0.300,2977.000,0.500,2438.000,1.000,773.000,5.000,0
"03/12/08","22:15:50",150621.000,"cc",28319.424,6.00,6,0.100,129530.000,0.200,16332.000,0.300,2372.000,0.500,1779.000,1.000,608.000,5.000,0
"03/12/08","22:15:56",108449.000,"cc",28335.701,6.00,6,0.100,91439.000,0.200,11509.000,0.300,2532.000,0.500,2218.000,1.000,751.000,5.000,0
"03/12/08","22:16:02",134322.000,"cc",28390.945,6.00,6,0.100,113444.000,0.200,14852.000,0.300,2970.000,0.500,2256.000,1.000,800.000,5.000,0
"03/12/08","22:16:08",78969.000,"cc",28272.953,6.00,6,0.100,65483.000,0.200,8248.000,0.300,2346.000,0.500,2190.000,1.000,702.000,5.000,0
"03/12/08","22:16:14",83163.000,"cc",28339.869,6.00,6,0.100,70848.000,0.200,8109.000,0.300,1869.000,0.500,1724.000,1.000,613.000,5.000,0